Regional Weather Roundup
Issued by NWS

Home | Current Version | Previous Version | Text Only | Print | Product List | Glossary On
Versions: 1 2 3 4 5 6 7 8 9 10 11 12 13 14 15 16 17 18 19 20 21 22 23 24 25 26 27 28 29 30 31 32 33 34 35 36 37 38 39 40 41 42 43 44 45 46 47 48 49 50
000
ASUS42 KKEY 220010
RWRKEY

FLORIDA REGIONAL WEATHER ROUNDUP FOR THE FLORIDA KEYS
NATIONAL WEATHER SERVICE KEY WEST FLORIDA
700 PM EST SUN DEC 21 2014

...SOUTH FLORIDA AND THE KEYS...

CITY           SKY/WX    TMP DP  RH WIND       PRES   REMARKS
FORT MYERS     CLOUDY    73  66  78 S5        30.01R
SW REGIONAL AP CLOUDY    74  65  73 S6        30.01S
NAPLES         MOCLDY    73  66  78 S8        30.01S
MIAMI          CLOUDY    74  64  71 SE5       30.05R
WEST KENDALL   CLOUDY    72  64  76 SE3       30.05R
HOMESTEAD      MOCLDY    71  65  80 E3        30.05R
MARATHON       MOCLDY    75  69  81 SE6       30.02S
BOCA CHICA NAS MOCLDY    75  70  84 SE13      30.01S
KEY WEST INTL  MOCLDY    76  69  79 SE13      30.02S

...INTERNATIONAL WEATHER...

CITY           SKY/WX    TMP DP  RH WIND       PRES   REMARKS
NASSAU BAHAMAS PTCLDY    75  70  83 VRB2      30.07R
CANCUN MEXICO  PTCLDY    79  73  83 SE9       29.95R
COZUMEL MEXICO PTCLDY    72  72 100 CALM      29.95R

ADJACENT COASTAL WATERS...

STATION/POSITION TIME  SKY/WX   TEMP    WIND        PRES    WAVE
                                AIR SEA DIR/SP/G            HT/PER
                 (UTC)          (F)     (DEG/KT/KT) (MB)    (FT/S)
PULASKI SHOAL LI 2300            75     130/ 11/ 12 1015.2R
SAND KEY         NOT AVBL
SOMBRERO KEY     0000            76     130/ 13/ 14 1017.2S
LONG KEY         2300            74 73  140/  6/  7 1017.5R
MOLASSES REEF    0000            75 76  150/  8/  8 1017.4R
FOWEY ROCKS      NOT AVBL
Buoy 42080       NOT AVBL

$$



USA.gov is the U.S. government's official web portal to all federal, state and local government web resources and services.